Location: Newark
(0.5300°S, 127.4800°E)
Time: 04:36:42
(UTC+00:00)

A-11 Canister half - Pass Details

Date: 19 September 2019
Orbit: 1514 x 1686 km, 47.2° (Epoch: 21 October)

Event Time Altitude Azimuth Distance (km) Brightness Sun altitude
Rises 12:07:34 0° 297° (WNW) 4,771 12.3 -40.9°
Reaches altitude 10° 12:11:03 10° 288° (WNW) 3,814 11.7 -41.8°
Maximum altitude 12:19:25 32° 228° (SW) 2,525 10.3 -43.9°
Enters shadow 12:22:31 27° 198° (SSW) 2,761 10.3 -44.6°
Drops below altitude 10° 12:28:04 10° 168° (SSE) 3,926 - -46.0°
Sets 12:31:46 0° 159° (SSE) 4,929 - -46.9°
